YAOGAN 24 (40310 NORAD) Tracking and Keplerian Element Data

This shows tracking and keplerian element data for the satellite.

Feedback or suggestion? Click here.




ElementValue
Catalog40310
NameYAOGAN 24
Epoch Orbit23853
Epoch Day114.23809924
Epoch Year2019
RAAN241.8169
Inclination97.8468
Eccentricity0.0018131
Argument of Perigee46.1455
Mean Anonmoly314.1257
Mean Motion14.7635582
Decay Rate1.5E-07
L11 40310U 14072A 19114.23809924 .00000015 00000-0 93294-5 0 9993
L22 40310 97.8468 241.8169 0018131 46.1455 314.1257 14.76355820238537

Live tracking and technical data element details for YAOGAN 24 (NORAD 40310). YAOGAN 24 can be tracked NOW for your location showing map with azimuth and elevation plus other details from your city location.

Track the satellite on the map from your city or location and see movement details for azimuth, elevation, latitude, longitude, range, height, and movement on the map or in text.







IsCatalogInMostPopularTable: catalog: 40310, numindb: 181
Update: records affected: 1



GetName: 40310 YAOGAN 24

Hit Count: updated at: Thu, 25 Apr 2019 20:41:32 GMT